User: anonymous   Login
Location: Unspecified
(0.0000°N, 0.0000°E)
Time: 17:49:34
(UTC+00:00)
Language:

TECSAR - Orbit

View from above orbital plane
View from above orbital plane
View from above satellite
View from above satellite

Ground track
Ground track

The orbit data is extracted from the following two-line orbital elements,

1 32476U 08002A   15103.04274439 0.00009000  00000-0  45401-3 0    04
2 32476  41.0586  65.5976 0003999 121.1255 238.8739 15.16321659    02
Epoch (UTC): 13 April 2015 01:01:33
Eccentricity: 0.0003999
inclination: 41.0586°
perigee height: 514 km
apogee height: 520 km
right ascension of ascending node: 65.5976°
argument of perigee: 121.1255°
revolutions per day: 15.16321659
mean anomaly at epoch: 238.8739°
orbit number at epoch: 0

The dashed part of the orbit path shows where the satellite is in the earth's shadow,  

DLR